Regional Weather Roundup
Issued by NWS Boston, MA

Current Version | Previous Version | Text Only | Print | Product List | Glossary Off
Versions: 1 2 3 4 5 6 7 8 9 10 11 12 13 14 15 16 17 18 19 20 21 22 23 24 25 26 27 28 29 30 31 32 33 34 35 36 37 38 39 40 41 42 43 44 45 46 47 48 49 50
000 ASUS41 KBOX 281310 RWRBOX REGIONAL WEATHER ROUNDUP NATIONAL WEATHER SERVICE TAUNTON MA 900 AM EDT FRI APR 28 2017 NOTE: "FAIR" INDICATES FEW OR NO CLOUDS BELOW 12,000 FEET WITH NO SIGNIFICANT WEATHER AND/OR OBSTRUCTIONS TO VISIBILITY. MAZALL-281400- EASTERN MASSACHUSETTS CITY SKY/WX TMP DP RH WIND PRES REMARKS BOSTON CLOUDY 60 59 96 S7 29.95F BEVERLY CLOUDY 57 56 96 SE3 29.94F FOG LAWRENCE CLOUDY 61 59 93 S6 29.96F BEDFORD CLOUDY 60 57 89 S8 29.94S FOG BLUE HILL N/A 58 57 97 SW9 29.96R NORWOOD CLOUDY 61 58 90 SW6 29.96S FOG MARSHFIELD CLOUDY 59 59 100 SW6G12 29.95S PLYMOUTH CLOUDY 57 56 96 VRB6 29.97R TAUNTON CLOUDY 59 56 89 CALM 29.97R NEW BEDFORD LGT RAIN 57 56 96 SW6 29.97R $$ MAZALL-281400- CAPE COD AND THE ISLANDS CITY SKY/WX TMP DP RH WIND PRES REMARKS FALMOUTH CLOUDY 61 61 100 MISG 29.99R HYANNIS LGT RAIN 57 57 100 S7 29.97S VSB 3/4 CHATHAM CLOUDY 56 55 97 SW7 30.00R THUNDER FOG PROVINCETOWN CLOUDY 57 57 100 S13 29.97R NANTUCKET CLOUDY 55 54 96 SW9 30.01R MARTHAS VNYRD CLOUDY 58 56 93 W9 29.99S $$ MAZALL-281400- CENTRAL AND WESTERN MASSACHUSETTS CITY SKY/WX TMP DP RH WIND PRES REMARKS WORCESTER FOG 58 56 93 SW6 29.95F VSB 1 FITCHBURG CLOUDY 61 59 93 S6 29.96R ORANGE CLOUDY 59 59 100 S3 29.96R SPRINGFIELD CLOUDY 60 60 99 S3 29.94S FOG WESTFIELD CLOUDY 59 59 100 CALM 29.95S FOG NORTH ADAMS CLOUDY 62 57 83 CALM 29.95S PITTSFIELD CLOUDY 60 57 89 W7 29.96R $$ RIZALL-281400- RHODE ISLAND CITY SKY/WX TMP DP RH WIND PRES REMARKS PROVIDENCE LGT RAIN 54 54 100 SE7 29.96F VSB 1/2 NEWPORT LGT RAIN 53 53 100 SE6 29.95F FOG BLOCK ISLAND N/A N/A N/A N/A MISG N/A FOG SMITHFIELD FOG 56 56 100 E3 29.95F VSB 1/4 WESTERLY CLOUDY 54 53 97 CALM 29.98R FOG $$ CTZALL-281400- CONNECTICUT CITY SKY/WX TMP DP RH WIND PRES REMARKS BRADLEY INTL FOG 59 59 100 CALM 29.95S VSB 1/4 HARTFORD CLOUDY 59 58 96 S5 29.96R BRIDGEPORT FOG 56 54 93 E3 29.98R VSB 1/4 DANBURY CLOUDY 61 61 100 W3 29.98R GROTON FOG 55 54 96 S5 29.97F VSB 1/4 NEW HAVEN FOG 57 57 100 SE3 29.97R VSB 1 CHESTER CLOUDY 59 59 100 SW3 29.97F MERIDEN CLOUDY 59 58 96 S6 29.96R FOG WILLIMANTIC CLOUDY 59 58 96 S5 29.97S FOG OXFORD FOG 57 55 94 S5 29.98R VSB 1 $$ MEZ002-015-021-024-NHZ003-005-008-011-012-014-VTZ005-008-281400- NORTHERN NEW ENGLAND CITY SKY/WX TMP DP RH WIND PRES REMARKS PORTLAND ME CLOUDY 53 52 96 VRB6 29.96S FOG BANGOR ME FOG 50 49 96 S6 29.98R VSB 1 CONCORD NH CLOUDY 58 57 97 CALM 29.96R MANCHESTER NH CLOUDY 61 56 83 S5 29.93S NASHUA NH CLOUDY 60 58 92 CALM 29.95S PORTSMOUTH NH LGT RAIN 54 52 94 CALM 29.95S FOG JAFFREY NH CLOUDY 60 59 96 W6 29.97R KEENE NH CLOUDY 60 58 92 W3 29.96R BURLINGTON VT CLOUDY 67 60 78 S9 29.91R MT. WASHINGTON FOG 48 48 100 W20 N/A VSB 0 $$ NYZ052-076-281400- EASTERN NEW YORK CITY SKY/WX TMP DP RH WIND PRES REMARKS ALBANY PTSUNNY 64 58 80 W3 29.97S NEW YORK CITY PTSUNNY 62 58 86 NE5 29.97R FOG $$ ANZALL-281400- MARINE OBSERVATIONS STATION/POSITION TIME TEMP WIND PRES VSBY WAVE AIR SEA DIR/SP/G HT/PER (UTC) (F) (DEG/KT/KT) (MB) (MI) (FT/S) BOSTON BUOY 1150 49 47 160/ 6/ 8 1013.6 4/ 9 BUZZARDS BAY 1200 52 200/ 12/ 13 1015.4R NANTUCKET SOUND 1150 47 1015.4 1/ 5 MASS BAY-STELLWA 1204 48 46 150/ 6/ 8 1013.7R 3/10 ISLE OF SHOALS 1200 49 140/ 9/ 9 1014.0R S OF BLOCK IS 1255 48 N/A 5/ 8 $$ ......................KEY......................... SKY/WX - SKY CONDITION/PRESENT WEATHER TMP - TEMPERATURE IN FAHRENHEIT DWPT - DEWPOINT IN FAHRENHEIT RH - RELATIVE HUMIDITY IN PERCENT WIND - DIRECTION AND SPEED IN MPH PRES - MEAN SEA LEVEL PRESSURE IN INCHES OF HG WCI - WIND CHILL INDEX VSB - VISIBILITY IN MILES HX - HEAT INDEX TC - TEMPERATURE IN CELSIUS VRB - VARIABLE WIND DIRECTION N/A - NOT AVAILABLE

USA.gov is the U.S. government's official web portal to all federal, state and local government web resources and services.